sat.trackr.live / text

‹ back to catalog

STARLINK-3595

NORAD 51894 · 2022-022AU

PAYLOAD ACTIVE UNKNOWN

§ Identity

Operator
Country
US
Launch date
2022-03-03
Launch site
AFETR
Launch vehicle
Mass (kg)
RCS (m²)

Purposes: comms

External: N2YO · Heavens-Above · Gunter

§ Orbital elements

Epoch: 2026-09-19T11:17:44.390688Z

Period
93.85 min
Inclination
53.1597°
Eccentricity
0.0001412
Mean motion
15.34382829 rev/d
Perigee alt
461.8 km
Apogee alt
463.7 km
Semi-major
6,840.9 km
B*
-2.7593e-5
RAAN
192.8812°
Arg perigee
87.9005°
Mean anomaly
272.2159°
Rev number
25,278

§ Raw data

STARLINK-35951 51894U 22022AU  26262.47065267 -.00001308  00000+0 -27593-4 0  99932 51894  53.1597 192.8812 0001412  87.9005 272.2159 15.34382829252784

JSON: /api/v1/satellites/51894 · /tle

For live sub-satellite position, see the globe view (requires WebGL).

§ Visibility from observer

Set your observer location to see the next 7 days of passes ≥ 10°. The values pass through the URL so the page stays shareable.

No JS? Fill the form by hand. The geolocation button needs JavaScript.